Disclaimer

Please do not use the information listed here in-flight or in-navigation, as they are not provided to us by the airports but are provided by volunteers, so they might be outdated.

Search


Regions


Airport information page

Radio informations:
Tower (TWR) - 124.2 MHz
Approach (APP) - 122.7 MHz

Airport informations:
Latitude: 43° 16' 58.44" N
Longitude: 017° 50' 45.16" E
Elevation: 156 feet - 48 meters
Operating hours: Remarks
Operating agency: Civil government, landing fees and diplomatic clearance may be required
Timezone: UTC+1(+2DT) - Last Sunday in March to last Sunday in October
Fuel: Jet fuel avaiable but type is unknown.

Runway information:
16/34 - 7874 x 158 feet< - >2400 x 48 meters

Recent METARs:
LQMO 212000Z 14003KT 120V180 9000 FEW060 BKN084 04/03 Q1012
LQMO 212100Z 12003KT 9000 FEW060 BKN080 04/03 Q1012
LQMO 212100Z 12003KT 9000 FEW060 BKN080 04/03 Q1012

Airport on the map: